Location: Brno
(49.2000°N, 16.6330°E)
Time: 11:17:41
(UTC+02:00)

ISS - Pass Details

Date: 23 May 2021
Orbit: 417 x 422 km, 51.6° (Epoch: 13 June)

Event Time Altitude Azimuth Distance (km) Brightness Sun altitude
Rises 22:10:25 0° 282° (WNW) 2,366 0.9 -11.5°
Reaches altitude 10° 22:12:32 10° 287° (WNW) 1,502 -0.1 -11.8°
Maximum altitude 22:15:52 58° 7° (N) 496 -3.2 -12.1°
Drops below altitude 10° 22:19:12 10° 88° (E) 1,503 -1.3 -12.4°
Enters shadow 22:19:30 - 89° (E) 1,624 -1.1 -12.4°
